User: anonymous
Location: Caltech
(34.1382°N, 118.1253°W)
Time: 17:33:48
(UTC-07:00)
Language:

COSMOS 2428 - Orbit

View from above orbital plane
View from above orbital plane
View from above satellite
View from above satellite

Ground track
Ground track

The orbit data is extracted from the following two-line orbital elements,

1 31792U 07029A   14209.82870147  .00000252  00000-0  16269-3 0  8493
2 31792 070.9617 102.2769 0005926 070.0381 041.3308 14.12381061365192
Epoch (UTC): 28 July 2014 19:53:19
Eccentricity: 0.0005926
inclination: 70.9617°
perigee height: 847 km
apogee height: 855 km
right ascension of ascending node: 102.2769°
argument of perigee: 70.0381°
revolutions per day: 14.12381061
mean anomaly at epoch: 41.3308°
orbit number at epoch: 36519

The dashed part of the orbit path shows where the satellite is in the earth's shadow,  

DLR